Location: Vale
(35.4830°N, 81.3830°W)
Time: 12:41:57
(UTC-04:00)

Cosmos 2237 Rocket - Visible Passes

Search period start: 21 July 2017 00:00
Search period end: 31 July 2017 00:00
Orbit: 836 x 848 km, 71.0° (Epoch: 20 July)

Date Brightness Start Highest point End Pass type
(mag) Time Alt. Az. Time Alt. Az. Time Alt. Az.
21 Jul 4.7 04:34:16 10° SE 04:36:56 14° E 04:39:35 10° ENE visible
22 Jul 4.7 04:19:45 10° ESE 04:22:07 13° E 04:24:29 10° ENE visible
23 Jul 4.7 04:05:18 10° ESE 04:07:19 12° E 04:09:18 10° ENE visible
23 Jul 2.2 05:45:00 10° SSW 05:50:36 74° WNW 05:56:15 10° NNE visible
24 Jul 4.7 03:50:58 10° ESE 03:52:30 11° E 03:54:03 10° E visible
24 Jul 2.2 05:30:08 10° SSW 05:35:46 78° WNW 05:41:25 10° NNE visible
25 Jul 4.8 03:36:52 10° ESE 03:37:42 10° E 03:38:32 10° E visible
25 Jul 2.2 05:16:07 15° SSW 05:20:55 82° WNW 05:26:35 10° NNE visible
26 Jul 2.1 05:02:08 20° SSW 05:06:05 86° WNW 05:11:44 10° NNE visible
27 Jul 2.1 04:48:06 27° SSW 04:51:15 90° E 04:56:54 10° NNE visible
28 Jul 2.1 04:34:00 36° SSW 04:36:24 85° ESE 04:42:03 10° NNE visible
29 Jul 2.1 04:19:52 47° S 04:21:34 81° ESE 04:27:12 10° NNE visible
29 Jul 4.1 06:03:38 10° W 06:06:18 13° NW 06:08:58 10° NNW visible
30 Jul 2.2 04:05:41 59° S 04:06:44 77° ESE 04:12:22 10° NNE visible
30 Jul 4.1 05:48:31 10° W 05:51:24 14° NW 05:54:19 10° NNW visible
